Notices

What's New in latest Release from April 7th, 2021:

- Updated Glossary, including Speed of Maximum Gust, and Total Hourly Precipitation

- Updated national and regional climate services offices contacts and prices information

- Addition of station inventory lists for 1981-2010, 1971-2000, and 1961-1990 Normals.

If you haven't already, please take our survey and provide feedback about our website: https://eccc.sondage-survey.ca/f/LanguageSelection.aspx?s=442ca660-fcf1-47c0-95a9-59707d6fd709

Hourly Data Report for April 17, 2021

CARBERRY CS
MANITOBA
Current Station Operator: ECCC - MSC

49°54'20.900" N
99°21'26.800" W
383.50 m
5010547
71170
WZE

Download Data

Hourly Data (April 2021)
Hourly Data Report for April 17, 2021
TIME
LST
Temp Definition
°C
Dew Point Definition
°C
Rel Hum Definition
%
Precip. Amount Definition
mm

Wind Dir Definition
10's deg

Wind Spd Definition
km/h
Visibility Definition
km
Stn Press Definition
kPa
Hmdx Definition


Wind Chill Definition


Weather Definition


00:00 -0.4 -5.2 70 0.0 26 10   97.64   -4 LegendNANA
01:00 0.2 -3.4 76 0.0 26 11   97.62     LegendNANA
02:00 -0.3 -2.8 83 0.0 24 8   97.56   -3 LegendNANA
03:00 -1.4 -2.7 91 0.0 26 11   97.50   -5 LegendNANA
04:00 -1.9 -3.7 88 0.0 25 10   97.46   -6 LegendNANA
05:00 -2.8 -3.8 93 0.0 27 12   97.45   -7 LegendNANA
06:00 -3.2 -3.9 95 0.0 27 10   97.46   -7 LegendNANA
07:00 -0.7 -2.4 88 0.0 27 11   97.46   -4 LegendNANA
08:00 2.1 -1.9 75 0.0 29 12   97.43     LegendNANA
09:00 6.7 -1.0 58 0.0 28 7   97.38     LegendNANA
10:00 9.9 -1.8 44 0.0 26 9   97.33     LegendNANA
11:00 11.5 -1.8 39 0.0 26 12   97.29     LegendNANA
12:00 13.2 -3.0 32 0.0 32 17   97.21     LegendNANA
13:00 14.1 -3.0 31 0.0 27 20   97.14     LegendNANA
14:00 15.0 -2.9 29 0.0 34 15   97.09     LegendNANA
15:00 15.1 -3.5 28 0.0 1 8   97.02     LegendNANA
16:00 15.2 -1.7 31 0.0 6 12   96.95     LegendNANA
17:00 14.4 -2.9 30 0.0 6 14   96.93     LegendNANA
18:00 12.3 -2.5 36 0.0 8 17   96.90     LegendNANA
19:00 11.3 -2.0 39 0.0 9 10   96.84     LegendNANA
20:00 9.1 -2.4 44 0.0 10 11   96.82     LegendNANA
21:00 7.5 -3.1 47 0.0 7 8   96.83     LegendNANA
22:00 6.1 -3.3 51 0.0 11 6   96.79     LegendNANA
23:00 5.7 -3.0 54 0.0 15 10   96.71     LegendNANA

Notes on Data Quality.

Legend

  • E = Estimated
  • M = Missing
  • NA = Not Available*
  • [empty] = Indicates an unobserved value
Date modified: